THORAD DELTA 1 DEB, 42628

Orbit data source: Space-Track

THORAD DELTA 1 DEB, 42628 is space debris in SSO originally from a launch on Fri, 15 Nov 1974 UTC launched from the Air Force Western Test Range (AFWTR). Debris objects in space refer to the collection of defunct objects orbiting the Earth. Examples of debris include non-operational satellites, rocket bodies, and fragments generated from explosions, collisions, or faulty payload assembly.

Loading next visibility...
Identifier
42628, 1974-089GV
Orbit
SSO
Country
Flag of USUS
Related business
Manufacturer
Unknown
Mission
Spacecraft
Bus & Motor
Unknown
Mass
Unknown
Launch date (UTC)
1974-11-15 (51 years ago)
Launch vehicle
Unknown
Launch site
Air Force Western Test Range (AFWTR)
Object type
Payload
Rocket body
Debris
Shape & HBR
Unknown shape, 0.1 m
Radar Cross Section
Small (<0.1 m²)

Expand to show TLE details & history
Last TLE update: 6 hours ago

TLE from 6 hours ago
0 THORAD DELTA 1 DEB
1 42628U 74089GV  26072.96501386 -.00000189  00000-0 -15625-2 0  9996
2 42628 101.1698 324.0139 0257565 269.1840  87.9692 12.06955000501322
Epoch: 2026-03-13T23:09Z
TLE epoch observation values (Epoch: 2026-03-13T23:09:37.197Z)
Latitude
-0.00001°
Longitude
165.01593°
Altitude
1,650.404 km
Speed
7.048 km/s
True Right ascension
21h 36m 03s
True Declination
0° 00' 00"
Sunlit
Object was in daylight at epoch
Visualization orbit readout
Latitude
Unknown
Longitude
Unknown
Altitude
Unknown
Speed
Unknown
Apparent Right ascension
Unknown
Apparent Declination
Unknown
Sunlit
N/A
Visualization observer readout
Local Sidereal Time
09:53:07
Azimuth
Unknown
Elevation
Unknown
Doppler factor
Unknown
Orbital elements
Apogee altitude
1,854.15 km
Perigee altitude
1,440.729 km
Semi-major axis
8,025.577 km
Eccentricity
0.02576
Inclination
101.1698°
RAAN
324.0139°
Arg. of periapsis
269.184°
True anomaly
90.92089°
Mean anomaly
87.9692°
Eccentric anomaly
89.44487°
Mean motion
3.01876 °/min
Orbital period
119.25 mins
BSTAR
-0.0015625
Loading maneuver chart data...
Computing Atmospheric mass density...

Documentation

Showing up to 5 results
|